Powrót do katalogu

STARLINK-31580

AktywnyŁącznośćVLEO
NORAD 59434·PAYLOAD·🇺🇸 United States

Wystrzelony Apr 7, 2024 z Vandenberg Space Force Base

Loading…

Następne Przeloty (najbliższe 24 godziny)

TLE

ŚwieżeSource: CelesTrak SupGP

Epoka: Sep 14, 2026, 22:33 UTC

1 59434C 24065P   26257.94006944 -.00041181  00000+0 -12168-2 0  2573
2 59434  53.1573 123.3666 0001373  92.6325 286.5003 15.34409344    11

Śledź STARLINK-31580 w czasie rzeczywistym z AllMySat

Download on the App Store